Content
SEND FEEDBACK

Daily
Averages
Monthly
Summary
United States of America

CHICAGO, ILLINOIS


Home > North America > United States > Illinois
Elevation: 674 feet     Latitude: 41 59N     Longitude: 087 54W

WEATHER
 
SELECT A DAY
Number of Records: 197,935;   Date Range: 7/8/95 - 10/24/14
 
SHARE

PRINT THIS DATA

[ ← Previous Day ]
WEATHER ALMANAC - FEBRUARY 22, 2013
[ Next Day → ]
[ °C ]   °F
Weather ElementAverageHighLow
Temperature28.2 °F35.6 °F (3:04 pm)24.8 °F (2:04 am)
Dewpoint24.4 °F30.2 °F (1:36 pm)21.2 °F (2:33 am)
Humidity85.7 %93 % (2:04 am)75 % (3:04 pm)
Barometer29.88 in29.98 in (1:52 am)29.81 in (1:36 pm)
Wind Speed8.4 mph13.8 mph (1:52 am)
Wind Gust20.7 mph (1:52 am)
Weather ElementAverage
Visibility3.5 mi
Wind DirectionSSE (160.7 °)

Weather ElementTotal
Precipitation0.09 in
Heating Degree Days34.8 (Base 65)
Averaged from 46 records on February 22, 2013
WEATHER CONDITIONS BREAKOUT
WIND DIRECTION BREAKOUT
WEATHER BY HOUR - FEBRUARY 22, 2013
[ °C ]   °F
Local TimeTemperatureDewpointHumidityBarometerVisibilityWind DirectionWind SpeedGust SpeedPrecipitationEventsConditions
1:52 AM26.1 °F23.0 °F88 %29.98 in1.0 miESE (110°)13.8 mph20.7 mph0.00 inSnowLight Snow
2:04 AM24.8 °F23.0 °F93 %29.95 in0.8 miEast (100°)10.4 mph20.7 mph0.00 inSnowLight Snow
2:33 AM24.8 °F21.2 °F86 %29.93 in0.8 miEast (100°)12.7 mph19.6 mph0.00 inSnowLight Snow
2:52 AM25.0 °F23.0 °F92 %29.95 in0.8 miEast (100°)11.5 mph0.00 inSnowLight Snow
3:21 AM24.8 °F23.0 °F93 %29.92 in0.5 miEast (100°)10.4 mph17.3 mph0.00 inFog-SnowSnow
3:28 AM24.8 °F23.0 °F93 %29.92 in0.5 miEast (100°)9.2 mph0.00 inFog-SnowSnow
3:48 AM24.8 °F23.0 °F93 %29.91 in1.2 miESE (110°)6.9 mph0.00 inSnowLight Snow
4:01 AM26.6 °F23.0 °F86 %29.91 in1.8 miESE (110°)9.2 mph0.00 inSnowLight Snow
4:10 AM26.6 °F21.2 °F80 %29.90 in2.0 miESE (110°)12.7 mph18.4 mph0.00 inSnowLight Snow
4:17 AM24.8 °F21.2 °F86 %29.90 in1.2 miESE (110°)10.4 mph18.4 mph0.00 inSnowLight Snow
4:24 AM24.8 °F21.2 °F86 %29.90 in1.0 miESE (110°)8.1 mph0.00 inSnowLight Snow
4:44 AM24.8 °F21.2 °F86 %29.89 in1.2 miEast (100°)6.9 mph0.00 inSnowLight Snow
4:52 AM25.0 °F21.9 °F88 %29.92 in1.8 miESE (110°)8.1 mph0.00 inSnowLight Snow
4:58 AM24.8 °F21.2 °F86 %29.89 in2.0 miEast (100°)6.9 mph0.00 inSnowLight Snow
5:10 AM24.8 °F21.2 °F86 %29.89 in3.0 miEast (100°)8.1 mph19.6 mph0.00 inSnowLight Snow
5:18 AM24.8 °F21.2 °F86 %29.89 in4.0 miEast (90°)6.9 mph0.00 inOvercast
5:57 AM24.8 °F21.2 °F86 %29.88 in2.0 miEast (100°)6.9 mph0.00 inSnowLight Snow
6:27 AM26.6 °F21.2 °F80 %29.86 in2.0 miESE (110°)6.9 mph0.00 inOvercast
6:43 AM26.6 °F21.2 °F80 %29.86 in2.0 miESE (110°)6.9 mph0.00 inOvercast
6:52 AM26.1 °F21.9 °F84 %29.89 in7.0 miESE (110°)5.8 mph0.00 inOvercast
7:52 AM27.0 °F23.0 °F85 %29.87 in7.0 miESE (110°)6.9 mphOvercast
8:52 AM28.0 °F24.1 °F85 %29.86 in5.0 miSE (140°)5.8 mphOvercast
9:52 AM28.0 °F25.0 °F88 %29.87 in3.0 miSouth (170°)6.9 mphOvercast
10:34 AM28.4 °F26.6 °F93 %29.84 in2.5 miSSE (160°)4.6 mphOvercast
10:52 AM28.9 °F26.1 °F89 %29.87 in2.0 miSSE (160°)5.8 mphOvercast
11:10 AM28.4 °F26.6 °F93 %29.84 in1.5 miSouth (170°)5.8 mphOvercast
11:22 AM28.4 °F26.6 °F93 %29.85 in1.0 miSouth (180°)6.9 mph0.00 inSnowLight Snow
11:45 AM30.2 °F28.4 °F93 %29.85 in1.2 miSouth (170°)8.1 mph0.00 inOvercast
11:52 AM30.0 °F28.0 °F92 %29.87 in1.2 miSouth (180°)6.9 mph0.00 inOvercast
12:26 PM30.2 °F28.4 °F93 %29.82 in2.0 miSouth (170°)8.1 mphOvercast
12:52 PM30.9 °F28.9 °F92 %29.84 in2.0 miSouth (180°)6.9 mph0.01 inSnowLight Snow
1:36 PM33.8 °F30.2 °F87 %29.81 in4.0 miSSW (200°)5.8 mph0.02 inOvercast
1:52 PM33.1 °F30.0 °F89 %29.83 in4.0 miSSW (200°)5.8 mph0.02 inOvercast
2:07 PM33.8 °F30.2 °F87 %29.81 in5.0 miSW (220°)5.8 mphOvercast
2:52 PM34.0 °F28.9 °F82 %29.84 in8.0 miWest (260°)8.1 mph0.01 inOvercast
3:04 PM35.6 °F28.4 °F75 %29.82 in8.0 miWSW (240°)8.1 mph18.4 mph0.01 inOvercast
3:52 PM34.0 °F28.0 °F79 %29.86 in9.0 miWSW (240°)10.4 mph19.6 mph0.02 inOvercast
4:52 PM33.1 °F26.1 °F75 %29.87 in9.0 miWSW (250°)11.5 mphOvercast
5:52 PM30.9 °F25.0 °F79 %29.89 in9.0 miWSW (240°)12.7 mphOvercast
6:52 PM30.9 °F25.0 °F79 %29.91 in5.0 miWSW (240°)9.2 mph0.00 inSnowLight Snow
7:52 PM30.0 °F24.1 °F79 %29.92 in7.0 miWSW (240°)11.5 mph16.1 mph0.00 inOvercast
8:52 PM30.0 °F24.1 °F79 %29.92 in6.0 miSW (230°)10.4 mphHaze
9:52 PM28.9 °F24.1 °F82 %29.92 in5.0 miSW (230°)6.9 mph0.00 inSnowLight Snow
10:25 PM28.4 °F23.0 °F80 %29.90 in6.0 miWSW (240°)9.2 mph16.1 mph0.00 inHaze
10:52 PM28.9 °F23.0 °F78 %29.92 in6.0 miWSW (250°)9.2 mph0.00 inHaze
11:52 PM28.9 °F23.0 °F78 %29.91 in6.0 miSW (230°)9.2 mphHaze
Hourly data recorded from KPWK, located miles away from Chicago, Illinois







STORIES FROM OUR PARTNERS